CW8593 Weather Reports


Display with metric or nautical units.
time (UTC)temp
F
wind
direction
speed
MPH
gust
MPH
rain 1hr
in
rain 24hr
in
rain mn
in
humidity
%
barometer
mb
20141220101232 52 329 6.0 3.0 0.00 0.00 0.00 76 1030.8
20141220094233 52 329 6.0 12.0 0.00 0.00 0.00 76 1030.8
20141220092233 52 295 4.0 10.0 0.00 0.00 0.00 77 1030.8
20141220083233 52 284 6.0 12.0 0.00 0.00 0.00 77 1030.3
20141220082235 52 309 6.0 14.0 0.00 0.00 0.00 76 1030.0
20141220081234 52 323 5.0 12.0 0.00 0.00 0.00 76 1030.0
20141220080233 52 302 3.0 9.0 0.00 0.00 0.00 77 1030.0
20141220075232 52 334 3.0 8.0 0.00 0.00 0.00 77 1030.0
20141220074233 52 305 5.0 8.0 0.00 0.00 0.00 77 1029.7
20141220073234 52 304 6.0 10.0 0.00 0.00 0.00 76 1029.6
20141220072233 52 334 6.0 12.0 0.00 0.00 0.00 76 1029.5
20141220070234 52 294 9.0 15.0 0.00 0.00 0.00 76 1029.4
20141220064235 52 292 8.0 15.0 0.00 0.00 0.00 77 1029.1
20141220063234 52 296 8.0 16.0 0.00 0.00 0.00 77 1029.0
20141220060234 52 304 6.0 14.0 0.00 0.00 0.00 78 1028.8
20141220055232 52 284 6.0 13.0 0.00 0.00 0.00 78 1028.8
20141220054233 52 291 5.0 12.0 0.00 0.00 0.00 78 1028.7
20141220052233 52 323 5.0 12.0 0.00 0.00 0.00 78 1028.5
20141220045235 52 325 6.0 10.0 0.00 0.00 0.00 79 1028.5
20141220044232 52 344 5.0 12.0 0.00 0.00 0.00 79 1028.5
20141220042235 53 342 5.0 12.0 0.00 0.00 0.00 79 1028.4
20141220040233 53 320 5.0 12.0 0.00 0.00 0.00 79 1028.3
20141220034233 53 355 5.0 12.0 0.00 0.00 0.00 80 1028.4
20141220033233 53 306 3.0 9.0 0.00 0.00 0.00 80 1028.5
20141220032232 53 315 3.0 10.0 0.00 0.00 0.00 80 1028.5
20141220031233 53 344 5.0 12.0 0.00 0.00 0.00 81 1028.6
20141220030235 53 313 4.0 9.0 0.00 0.00 0.00 80 1028.6
20141220025232 53 317 3.0 7.0 0.00 0.00 0.00 80 1028.6
20141220024233 53 310 5.0 10.0 0.00 0.00 0.00 80 1028.6
20141220023233 53 323 3.0 9.0 0.00 0.00 0.00 80 1028.7
20141220022232 53 307 6.0 10.0 0.00 0.00 0.00 80 1028.7
20141220021233 53 310 5.0 10.0 0.00 0.00 0.00 81 1028.8
20141220020234 53 300 5.0 10.0 0.00 0.00 0.00 81 1028.8
20141220015232 53 335 5.0 9.0 0.00 0.00 0.00 81 1028.8
20141220011235 53 283 6.0 12.0 0.00 0.00 0.00 81 1028.5
20141220010234 53 288 6.0 9.0 0.00 0.00 0.00 81 1028.7
20141220005233 53 288 5.0 10.0 0.00 0.00 0.00 81 1028.7
20141220004232 53 298 5.0 9.0 0.00 0.00 0.00 81 1028.8
20141220003233 53 289 5.0 9.0 0.00 0.00 0.00 80 1028.8
20141220002235 53 317 5.0 12.0 0.00 0.00 0.00 80 1028.9
20141220001233 53 304 5.0 12.0 0.00 0.00 0.00 80 1029.0
20141220000234 53 292 5.0 12.0 0.00 0.00 0.00 80 1028.9
20141219235235 53 286 5.0 12.0 0.00 0.00 0.00 81 1028.9
20141219232233 52 315 7.0 12.0 0.00 0.00 0.00 80 1029.0
20141219231232 52 301 6.0 13.0 0.00 0.00 0.00 80 1029.0
20141219230233 52 307 5.0 14.0 0.00 0.00 0.00 80 1028.9
20141219225232 52 324 6.0 12.0 0.00 0.00 0.00 80 1028.9
20141219223232 51 290 6.0 12.0 0.00 0.00 0.00 80 1028.8
20141219220233 51 304 9.0 15.0 0.00 0.00 0.00 80 1028.5
20141219215232 51 288 8.0 16.0 0.00 0.00 0.00 81 1028.5
20141219214233 51 294 9.0 13.0 0.00 0.00 0.00 81 1028.4
20141219213236 51 301 9.0 14.0 0.00 0.00 0.00 80 1028.3
20141219212234 51 298 9.0 13.0 0.00 0.00 0.00 80 1028.1
20141219211234 51 291 8.0 12.0 0.00 0.00 0.00 80 1028.1
20141219205233 51 289 7.0 13.0 0.00 0.00 0.00 80 1028.1
20141219204233 51 286 7.0 12.0 0.00 0.00 0.00 80 1028.0
20141219202233 52 315 4.0 7.0 0.00 0.00 0.00 80 1027.8
20141219201234 52 12 1.0 5.0 0.00 0.00 0.00 79 1027.7
20141219195232 52 326 1.0 5.0 0.00 0.00 0.00 79 1027.5
20141219194232 52 310 0.0 8.0 0.00 0.00 0.00 79 1027.4
20141219193232 52 313 1.0 5.0 0.00 0.00 0.00 79 1027.5
20141219192232 52 33 0.0 5.0 0.00 0.00 0.00 79 1027.5
20141219190233 52 279 2.0 5.0 0.00 0.00 0.00 79 1027.3
20141219183232 52 0 1.0 5.0 0.00 0.00 0.00 79 1027.1
20141219182231 52 294 0.0 5.0 0.00 0.00 0.00 79 1027.1
20141219181232 52 294 3.0 7.0 0.00 0.00 0.00 79 1027.1
20141219174233 52 323 6.0 12.0 0.00 0.00 0.00 79 1026.8
20141219171233 53 288 7.0 12.0 0.00 0.00 0.00 77 1026.7
20141219164234 55 326 4.0 12.0 0.00 0.00 0.00 76 1026.2
20141219163233 55 348 2.0 8.0 0.00 0.00 0.00 75 1026.1
20141219162232 56 302 2.0 7.0 0.00 0.00 0.00 74 1026.1
20141219161231 57 348 3.0 6.0 0.00 0.00 0.00 74 1026.0
20141219160232 58 298 1.0 3.0 0.00 0.00 0.00 73 1025.9
20141219155232 58 298 1.0 6.0 0.00 0.00 0.00 76 1026.0
20141219153232 59 146 0.0 3.0 0.00 0.00 0.00 77 1025.9
20141219152232 60 148 0.0 3.0 0.00 0.00 0.00 75 1025.7
20141219151232 60 146 0.0 2.0 0.00 0.00 0.00 74 1025.7
20141219150232 60 147 0.0 3.0 0.00 0.00 0.00 75 1025.7
20141219145232 60 146 1.0 5.0 0.00 0.00 0.00 76 1025.8
20141219144232 60 129 2.0 5.0 0.00 0.00 0.00 75 1025.7
20141219142231 62 188 0.0 2.0 0.00 0.00 0.00 71 1025.7
20141219141232 62 188 1.0 5.0 0.00 0.00 0.00 71 1025.7
20141219140231 62 188 1.0 3.0 0.00 0.00 0.00 71 1025.7
20141219134233 61 204 2.0 5.0 0.00 0.00 0.00 70 1025.8
20141219133231 62 207 0.0 5.0 0.00 0.00 0.00 71 1026.0
20141219132231 62 214 1.0 6.0 0.00 0.00 0.00 71 1026.0
20141219125232 62 205 1.0 6.0 0.00 0.00 0.00 69 1026.2
20141219122233 62 215 0.0 3.0 0.00 0.00 0.00 71 1026.4
20141219120231 62 205 1.0 6.0 0.00 0.00 0.00 71 1026.5
20141219115231 62 186 2.0 5.0 0.00 0.00 0.00 69 1026.6
20141219114232 62 194 2.0 6.0 0.00 0.00 0.00 68 1026.8
20141219113232 63 213 2.0 5.0 0.00 0.00 0.00 68 1026.9
20141219112232 62 213 0.0 3.0 0.00 0.00 0.00 68 1027.0
20141219110232 61 213 3.0 8.0 0.00 0.00 0.00 70 1027.1
20141219104232 62 57 1.0 3.0 0.00 0.00 0.00 67 1027.2